Flag for United Kingdom Weather past 2 weeks in St. Peter Port, Guernsey, United Kingdom

Now
57 °F

Sunny.


Feels Like: 54 °F
Forecast: 51 / 59 °F
Wind: 13 mph from East

Location: Guernsey Airport


UV Index: 3 (Moderate)

Visibility: 10 mi


Pressure: 30.27 "Hg

Humidity: 55%

Dew point: 41 °F

Location of St. Peter PortLocation

Historic Weather in St. Peter Port

°F

St. Peter Port temperature yesterday

Maximum temperature yesterday: 54 °F (at 11:20 AM)
Minimum temperature yesterday: 46 °F (at 3:50 AM)
Average temperature yesterday: 50 °F

Past Weeks' High & Low Weather Summary

 TemperatureHumidityPressure
High63 °F (Apr 1, 4:20 PM)100% (Apr 3, 4:20 AM)30.39 "Hg (Apr 3, 4:20 AM)
Low43 °F (Apr 10, 5:20 AM)51% (Apr 16, 12:50 PM)29.45 "Hg (Apr 3, 4:20 AM)
Average51 °F87%30.04 "Hg
* Reported Apr 1 2:20 PM — Apr 16 2:20 PM, St. Peter Port, Weather by CustomWeather, © 2014

Note: Actual official high and low records may vary slightly from our data, if they occured in-between our weather recording intervals... More about our weather records

Advertising

Historic Weather Conditions — Data for Previous 24 hours

 ConditionsComfort  
Time TempWeatherWind HumidityBarometerVisibility
2:20 PM
Apr 16
57 °FSunny.12 mph55%30.27 "Hg10 mi
1:50 PM55 °FSunny.13 mph59%30.27 "Hg10 mi
1:20 PM55 °FSunny.13 mph63%30.27 "Hg10 mi
12:50 PM55 °FSunny.15 mph51%30.27 "Hg10 mi
12:20 PM54 °FSunny.15 mph63%30.27 "Hg10 mi
11:50 AM54 °FSunny.14 mph63%30.27 "Hg10 mi
11:20 AM54 °FSunny.13 mph63%30.30 "Hg10 mi
10:50 AM52 °FSunny.12 mph72%30.30 "Hg10 mi
10:20 AM52 °FSunny.13 mph67%30.30 "Hg10 mi
9:50 AM50 °FSunny.14 mph76%30.30 "Hg10 mi
9:20 AM50 °FSunny.14 mph76%30.30 "Hg10 mi
8:50 AM48 °FSunny.15 mph82%30.30 "Hg10 mi
8:20 AM48 °FSunny.13 mph82%30.30 "Hg10 mi
7:50 AM46 °FSunny.12 mph82%30.30 "Hg10 mi
7:20 AM46 °FSunny.13 mph82%30.30 "Hg10 mi
6:50 AM45 °FClear.15 mph87%30.30 "Hg10 mi
6:20 AM45 °FClear.14 mph87%30.30 "Hg10 mi
5:50 AM46 °FClear.15 mph82%30.30 "Hg10 mi
5:20 AM46 °FClear.15 mph82%30.30 "Hg10 mi
4:50 AM46 °FClear.13 mph82%30.30 "Hg10 mi
4:20 AM46 °FClear.13 mph87%30.30 "Hg10 mi
3:50 AM46 °FClear.15 mph87%30.30 "Hg10 mi
8:50 PM
Apr 15
48 °FSunny.17 mph76%30.30 "Hg10 mi
8:20 PM48 °FSunny.20 mph76%30.30 "Hg10 mi
7:50 PM48 °FSunny.17 mph76%30.30 "Hg10 mi
7:20 PM50 °FSunny.14 mph76%30.30 "Hg10 mi
6:50 PM50 °FSunny.13 mph76%30.30 "Hg10 mi
6:20 PM50 °FSunny.15 mph76%30.30 "Hg10 mi
5:50 PM50 °FSunny.15 mph76%30.30 "Hg10 mi
5:20 PM50 °FSunny.17 mph71%30.30 "Hg10 mi
4:50 PM52 °FSunny.17 mph72%30.30 "Hg10 mi
4:20 PM52 °FSunny.18 mph72%30.33 "Hg10 mi
3:50 PM52 °FPassing clouds.16 mph72%30.33 "HgN/A
3:20 PM54 °FPassing clouds.20 mph63%30.33 "HgN/A
Weather by CustomWeather, © 2014

See weather overview